[[{"header":{"parameterUnit":"m.s-1","parameterCategory":1,"la1":30.2991,"la2":30.254,"lo1":-89.0895,"lo2":-89.0444,"dy":0.0017,"dx":0.0017,"nx":28,"ny":28,"refTime":"2025-03-27T09:00:00:Z","depth":0,"parameterNumber":2,"parameterNumberName":"U-component_of_WINDS"},"data":[0,0,0,0,0,0,0,0,0,0,0,0,0,0,0,0,0,0,0,0,0,0,0,0,0,0,0,0,0,0,0,0,0,0,0,0,0,0,0,0,0,0,0,0,0,0,0,0,0,0,0,0,0,0,0,0,0,0,-5.2985,-5.2986,0,-5.3078,-5.3079,-5.308,-5.3046,-5.3043,-5.3041,-5.3039,-5.3138,-5.3142,-5.3147,0,0,0,0,0,0,0,0,0,0,0,0,0,-5.2782,-5.2786,-5.2985,-5.2986,-5.2987,-5.3078,-5.3079,-5.3081,-5.3046,-5.3043,-5.3041,-5.3038,-5.3136,-5.3142,-5.3147,0,0,0,0,0,0,0,0,0,0,0,0,0,-5.2872,-5.2787,-5.2985,-5.2981,-5.2982,-5.3078,-5.308,-5.3081,-5.3047,-5.3043,-5.304,-5.3037,-5.3134,-5.3141,-5.3148,-5.3254,0,0,-5.3169,-5.3172,0,0,0,0,0,0,0,0,-5.2867,-5.288,-5.298,-5.2981,-5.2982,-5.3047,-5.3044,-5.3139,-5.3047,-5.3022,-5.3039,-5.3036,-5.311,-5.3119,-5.3144,-5.3259,-5.3263,-5.317,-5.3174,-5.3177,-5.3179,0,0,0,0,0,0,0,-5.2861,-5.2875,-5.3022,-5.2982,-5.2983,-5.2976,-5.2985,-5.3062,-5.3083,-5.3024,-5.3022,-5.3033,-5.311,-5.3137,-5.3146,-5.3265,-5.3169,-5.3175,-5.318,-5.3182,-5.3475,-5.3478,0,0,0,0,0,0,-5.2854,-5.287,-5.3019,-5.3025,-5.2915,-5.2982,-5.2993,-5.303,-5.3082,-5.3087,-5.3036,-5.3031,-5.3127,-5.3138,-5.3149,-5.3277,-5.3177,-5.3183,-5.3187,-5.3471,-5.3476,-5.348,0,0,0,0,0,0,-5.2849,-5.2867,-5.3015,-5.2947,-5.2965,-5.2989,-5.3031,-5.3033,-5.306,-5.3091,-5.3095,-5.3059,-5.3125,-5.3139,-5.3229,-5.328,-5.3186,-5.3193,-5.3467,-5.3473,-5.3478,-5.3535,0,0,0,0,0,0,-5.2844,-5.2866,-5.2905,-5.2948,-5.2969,-5.3092,-5.3034,-5.3037,-5.3071,-5.3066,-5.3114,-5.3118,-5.3123,-5.3219,-5.3236,-5.3288,-5.3198,-5.3462,-5.3469,-5.3476,-5.3529,-5.3542,-5.3553,0,0,0,0,0,-5.2837,-5.2918,-5.2907,-5.2925,-5.3019,-5.3095,-5.3107,-5.311,-5.3076,-5.3116,-5.3137,-5.3117,-5.3273,-5.3228,-5.3247,-5.3302,-5.3459,-5.3467,-5.3475,-5.3523,-5.3539,-5.3553,0,0,0,0,0,0,-5.288,-5.2923,-5.2912,-5.3009,-5.3049,-5.3089,-5.3139,-5.3127,-5.3178,-5.3171,-5.3174,-5.3185,-5.3277,-5.3299,-5.3249,-5.341,-5.3361,-5.3373,-5.3391,-5.3406,-5.3418,-5.341,-5.3204,0,0,0,0,0,-5.2901,-5.2959,-5.2994,-5.3076,-5.3097,-5.3115,-5.3149,-5.3148,-5.3189,-5.3206,-5.3233,-5.3275,-5.3333,-5.3372,-5.3427,-5.3533,-5.3543,-5.3581,-5.3593,-5.3603,-5.3613,-5.3672,-5.3689,-5.3506,-5.3506,-5.3506,0,0,-5.2945,-5.2976,-5.3011,-5.3086,-5.3116,-5.3177,-5.3129,-5.3195,-5.324,-5.3216,-5.3301,-5.3324,-5.3371,-5.3469,-5.3514,-5.3491,-5.3666,-5.3613,-5.3621,-5.3625,-5.3682,-5.3699,-5.3714,-5.3512,-5.3511,-5.351,0,0,-5.3055,-5.3084,-5.3156,-5.3188,-5.3235,-5.3248,-5.3265,-5.3308,-5.3322,-5.3408,-5.3392,-5.3447,-5.3548,-5.3582,-5.3613,-5.3741,-5.3724,-5.3759,-5.3822,-5.3879,-5.3894,-5.3906,-5.3951,-5.3968,-5.377,-5.377,-5.377,0,-5.3103,-5.3192,-5.3195,-5.3263,-5.3296,-5.3278,-5.3352,-5.3384,-5.3447,-5.3472,-5.3445,-5.3572,-5.3602,-5.3709,-5.374,-5.3766,-5.3787,-5.3752,-5.3891,-5.3904,-5.3916,-5.3959,-5.3976,-5.3773,-5.3773,-5.3773,-5.3772,0,-5.3249,-5.3312,-5.3365,-5.3426,-5.3466,-5.3537,-5.3552,-5.3593,-5.3591,-5.3607,-5.3696,-5.3733,-5.3796,-5.3822,-5.382,-5.393,-5.3914,-5.389,-5.384,-5.3937,-5.3977,-5.3994,-5.3779,-5.3777,-5.3776,-5.3775,0,0,-5.3385,-5.3449,-5.3468,-5.3497,-5.3549,-5.3598,-5.367,-5.3731,-5.3766,-5.3812,-5.3872,-5.396,-5.3938,-5.3973,-5.3976,-5.4027,-5.4126,-5.3996,-5.3997,-5.4018,-5.4249,-5.4265,-5.4284,-5.4117,-5.412,-5.4123,-5.4245,0,-5.3498,-5.3621,-5.3628,-5.374,-5.3798,-5.3785,-5.3847,-5.3887,-5.3905,-5.3959,-5.398,-5.4041,-5.4008,-5.403,-5.4079,-5.4103,-5.4172,-5.4095,-5.4173,-5.4176,-5.4159,-5.4305,-5.4322,-5.4435,-5.4261,-5.4263,-5.4265,0,-5.3645,-5.3695,-5.3813,-5.3859,-5.3884,-5.3939,-5.3997,-5.4049,-5.4095,-5.4105,-5.4146,-5.4142,-5.4218,-5.4169,-5.4273,-5.422,-5.4254,-5.4271,-5.4276,-5.4281,-5.4224,-5.4313,-5.4471,-5.4488,-5.429,-5.4288,-5.4287,0,-5.3731,-5.3828,-5.3911,-5.3936,-5.3992,-5.4032,-5.4057,-5.41,-5.4138,-5.419,-5.4214,-5.4275,-5.4308,-5.4356,-5.4369,-5.4332,-5.4474,-5.4426,-5.4484,-5.4484,-5.4512,-5.4509,-5.4676,-5.4538,-5.4537,-5.4537,-5.4537,0,-5.3855,-5.3927,-5.395,-5.4001,-5.4083,-5.4092,-5.4174,-5.4197,-5.4236,-5.4293,-5.4286,-5.434,-5.4356,-5.4413,-5.4425,-5.451,-5.4526,-5.4536,-5.4538,-5.4535,-5.4534,-5.4555,-5.4547,-5.4542,-5.4541,-5.454,-5.4539,0,-5.3962,-5.3981,-5.4071,-5.4117,-5.4131,-5.4189,-5.423,-5.428,-5.4299,-5.4371,-5.4388,-5.4418,-5.4485,-5.4505,-5.4586,-5.4594,-5.4694,-5.4689,-5.4677,-5.4677,-5.4734,-5.4728,-5.4918,-5.4943,-5.479,-5.4791,-5.4793,0,-5.4038,-5.4094,-5.4147,-5.4184,-5.4211,-5.4271,-5.431,-5.4322,-5.4363,-5.4422,-5.4465,-5.4532,-5.4585,-5.4695,-5.4724,-5.4787,-5.4783,-5.4846,-5.4792,-5.4788,-5.4783,-5.4778,-5.4784,-5.4855,-5.4856,-5.4858,-5.4859,0,-5.4172,-5.4179,-5.4234,-5.4293,-5.4339,-5.4386,-5.4432,-5.4463,-5.4483,-5.453,-5.4598,-5.464,-5.4724,-5.479,-5.4854,-5.4883,-5.4875,-5.4876,-5.4893,-5.4889,-5.4879,-5.4884,-5.4702,-5.4871,-5.4869,-5.4869,-5.4868,-5.4867,-5.4265,-5.4314,-5.436,-5.4422,-5.4458,-5.4501,-5.4551,-5.4577,-5.4633,-5.4701,-5.4707,-5.4781,-5.483,-5.4915,-5.4948,-5.5007,-5.4989,-5.5013,-5.5019,-5.5024,-5.5028,-5.4872,-5.5019,-5.5019,-5.5019,-5.5019,-5.5018,0,-5.4397,-5.4426,-5.4483,-5.4547,-5.4597,-5.4586,-5.4637,-5.4679,-5.4745,-5.479,-5.4843,-5.4924,-5.4989,-5.5026,-5.5091,-5.5132,-5.5131,-5.5149,-5.5145,-5.5152,-5.5042,-5.502,-5.515,-5.515,-5.515,-5.5149,-5.5149,-5.5149,-5.4471,-5.4553,-5.4567,-5.4668,-5.4698,-5.477,-5.48,-5.4841,-5.4877,-5.4966,-5.5021,-5.5044,-5.5087,-5.5156,-5.5216,-5.5226,-5.525,-5.527,-5.5277,-5.5173,-5.5159,-5.5146,-5.5126,-5.5276,-5.5276,-5.5382,-5.5383,-5.5384]},{"header":{"parameterUnit":"m.s-1","parameterCategory":1,"la1":30.2991,"la2":30.254,"lo1":-89.0895,"lo2":-89.0444,"dy":0.0017,"dx":0.0017,"nx":28,"ny":28,"refTime":"2025-03-27T09:00:00:Z","depth":0,"parameterNumber":3,"parameterNumberName":"V-component_of_WINDS"},"data":[0,0,0,0,0,0,0,0,0,0,0,0,0,0,0,0,0,0,0,0,0,0,0,0,0,0,0,0,0,0,0,0,0,0,0,0,0,0,0,0,0,0,0,0,0,0,0,0,0,0,0,0,0,0,0,0,0,0,2.634,2.6341,0,2.6446,2.6447,2.6448,2.654,2.6542,2.6543,2.6544,2.6645,2.6647,2.6649,0,0,0,0,0,0,0,0,0,0,0,0,0,2.6214,2.6216,2.634,2.6341,2.6343,2.6446,2.6447,2.6449,2.654,2.6542,2.6543,2.6544,2.6645,2.6647,2.6649,0,0,0,0,0,0,0,0,0,0,0,0,0,2.6289,2.6217,2.634,2.6401,2.6408,2.6445,2.6447,2.6449,2.654,2.6542,2.6543,2.6545,2.6644,2.6646,2.6649,2.6632,0,0,2.6657,2.6658,0,0,0,0,0,0,0,0,2.6285,2.6294,2.6391,2.6397,2.6404,2.6482,2.644,2.651,2.654,2.6489,2.6544,2.6546,2.6589,2.6596,2.6612,2.6637,2.6642,2.6657,2.6659,2.666,2.666,0,0,0,0,0,0,0,2.6279,2.629,2.6382,2.6392,2.64,2.6422,2.6435,2.6454,2.6529,2.6494,2.6501,2.6513,2.6593,2.661,2.6615,2.6643,2.6657,2.6659,2.6661,2.6662,2.6663,2.6662,0,0,0,0,0,0,2.6266,2.6285,2.6378,2.6385,2.6348,2.6423,2.6437,2.6455,2.6529,2.6542,2.6511,2.6516,2.6604,2.6612,2.6619,2.6607,2.666,2.6662,2.6663,2.6665,2.6663,2.6662,0,0,0,0,0,0,2.6263,2.6273,2.6374,2.6337,2.6351,2.6424,2.6443,2.6456,2.6473,2.6542,2.6555,2.6515,2.6606,2.6616,2.663,2.6612,2.6663,2.6666,2.6667,2.6664,2.6662,2.6581,0,0,0,0,0,0,2.6259,2.6271,2.6266,2.6336,2.6353,2.6384,2.6442,2.6457,2.6478,2.6486,2.6549,2.656,2.6608,2.6626,2.6632,2.6616,2.6667,2.6669,2.6666,2.6663,2.6586,2.6577,2.6569,0,0,0,0,0,2.6254,2.6237,2.6266,2.6276,2.6349,2.6382,2.6392,2.6449,2.6476,2.6472,2.6517,2.6558,2.6613,2.6626,2.6635,2.6619,2.667,2.6666,2.6663,2.659,2.6578,2.6569,0,0,0,0,0,0,2.616,2.6247,2.628,2.6286,2.6326,2.6398,2.6394,2.6435,2.6466,2.6472,2.654,2.6553,2.656,2.6591,2.6604,2.6609,2.6647,2.6645,2.6588,2.6578,2.657,2.6562,2.667,0,0,0,0,0,2.6141,2.6163,2.6237,2.6235,2.6254,2.632,2.6337,2.6378,2.6422,2.6439,2.6484,2.6524,2.6551,2.6566,2.6594,2.6591,2.6607,2.6585,2.6576,2.6569,2.6566,2.657,2.6562,2.6651,2.6651,2.6651,0,0,2.6099,2.615,2.6159,2.6217,2.6254,2.6274,2.6334,2.6352,2.6368,2.6441,2.6458,2.6493,2.6542,2.6548,2.6553,2.6574,2.6546,2.6565,2.6558,2.656,2.6566,2.6557,2.6549,2.6648,2.6649,2.6649,0,0,2.6036,2.6076,2.608,2.6116,2.6172,2.6217,2.6218,2.6285,2.6312,2.6331,2.6387,2.6406,2.6449,2.6483,2.6505,2.6459,2.6499,2.6466,2.642,2.6423,2.6416,2.641,2.6395,2.6388,2.6463,2.6463,2.6463,0,2.5977,2.6012,2.6076,2.6093,2.6117,2.6188,2.6193,2.6224,2.6285,2.63,2.6323,2.6382,2.6419,2.6436,2.6425,2.644,2.6444,2.6458,2.6412,2.6407,2.6402,2.6388,2.6382,2.6458,2.6459,2.6459,2.646,0,2.5938,2.5961,2.5958,2.6019,2.6043,2.6053,2.6119,2.6135,2.6175,2.6217,2.6237,2.6285,2.6325,2.6332,2.6369,2.6355,2.6366,2.64,2.644,2.6388,2.6377,2.6372,2.6452,2.6454,2.6455,2.6456,0,0,2.5816,2.5916,2.5913,2.5943,2.6011,2.603,2.6044,2.6087,2.61,2.614,2.6154,2.6191,2.6224,2.6249,2.6291,2.6293,2.6256,2.6327,2.633,2.6313,2.6245,2.622,2.6213,2.6284,2.6283,2.6282,2.6241,0,2.5764,2.5796,2.5856,2.5868,2.5891,2.596,2.5973,2.6016,2.6056,2.6081,2.6125,2.6151,2.6192,2.6208,2.6213,2.6259,2.6243,2.6263,2.6296,2.6297,2.6283,2.6206,2.6179,2.6139,2.6237,2.6236,2.6236,0,2.5707,2.5747,2.5763,2.5833,2.5845,2.5855,2.5901,2.5924,2.5974,2.6004,2.6034,2.6082,2.61,2.6137,2.6164,2.6176,2.6194,2.6218,2.6218,2.6224,2.6263,2.621,2.6127,2.6121,2.6229,2.6229,2.623,0,2.5619,2.5676,2.5694,2.5717,2.5799,2.5805,2.5839,2.5891,2.5914,2.5953,2.5969,2.6008,2.603,2.6059,2.6116,2.6137,2.6137,2.6178,2.6162,2.616,2.6158,2.6157,2.6077,2.6168,2.6168,2.6168,2.6168,0,2.5555,2.5562,2.5656,2.5666,2.5677,2.5746,2.5754,2.5794,2.5841,2.586,2.5921,2.5937,2.6012,2.6037,2.6081,2.6097,2.6106,2.613,2.6142,2.6125,2.6122,2.6137,2.6142,2.6167,2.6167,2.6167,2.6167,0,2.5458,2.5521,2.5545,2.5622,2.5642,2.5646,2.5711,2.5724,2.577,2.5794,2.5803,2.5874,2.5907,2.5967,2.6016,2.6046,2.6053,2.6073,2.6037,2.6044,2.6026,2.6027,2.5952,2.5946,2.604,2.6039,2.6038,0,2.5413,2.5421,2.55,2.5519,2.5552,2.5581,2.5606,2.5674,2.5697,2.5758,2.5763,2.5802,2.5837,2.5886,2.5941,2.5979,2.6001,2.5972,2.6007,2.5991,2.6002,2.6001,2.6003,2.5964,2.5963,2.5962,2.5961,0,2.5328,2.536,2.5395,2.5441,2.547,2.5509,2.5551,2.5562,2.564,2.5663,2.5699,2.5726,2.5779,2.5817,2.5864,2.5898,2.5942,2.595,2.5948,2.5931,2.5911,2.5923,2.6017,2.5951,2.5952,2.5953,2.5953,2.5953,2.5257,2.5268,2.5327,2.5364,2.5404,2.5443,2.546,2.5509,2.5541,2.5592,2.563,2.5663,2.5716,2.5785,2.5816,2.5843,2.5864,2.5861,2.586,2.5859,2.5853,2.5907,2.5852,2.5852,2.5852,2.5853,2.5853,0,2.5176,2.5219,2.5252,2.5311,2.5341,2.5383,2.5433,2.5454,2.5484,2.5531,2.5565,2.5608,2.5646,2.5705,2.5747,2.5757,2.5779,2.5766,2.5766,2.5774,2.5831,2.5829,2.5748,2.5748,2.5748,2.5748,2.5748,2.5748,2.5138,2.516,2.52,2.5243,2.5284,2.532,2.5345,2.5381,2.542,2.5466,2.5499,2.5538,2.559,2.5637,2.5674,2.5691,2.5703,2.5684,2.5707,2.576,2.5769,2.5779,2.5777,2.5686,2.5686,2.5648,2.5647,2.5647]}]]